Location: Eppenbrunn
(49.1158°N, 7.5601°E)
Time: 07:17:51
(UTC+00:00)

IGS 5A - Pass Details

Date: 22 June 2021
Orbit: 583 x 587 km, 97.6° (Epoch: 17 July)

Event Time Altitude Azimuth Distance (km) Brightness Sun altitude
Exits shadow 20:15:52 - 175° (S) 2,842 6.5 -5.4°
Rises 20:15:57 0° 175° (S) 2,805 6.5 -5.4°
Reaches altitude 10° 20:18:08 10° 180° (S) 1,909 5.6 -5.6°
Maximum altitude 20:22:13 58° 259° (W) 691 4.0 -6.1°
Drops below altitude 10° 20:26:21 10° 340° (NNW) 1,925 7.4 -6.5°
Sets 20:28:33 0° 344° (NNW) 2,831 8.3 -6.8°
